Location: Dead Woman Crossing
(43.5369°N, 106.3228°W)
Time: 14:47:59
(UTC+00:00)

ITUPSAT 1 - Pass Details

Date: 06 July 2022
Orbit: 701 x 711 km, 98.6° (Epoch: 13 August)

Event Time Altitude Azimuth Distance (km) Brightness Sun altitude
Rises 04:46:35 0° 360° (N) 3,113 ? -16.0°
Reaches altitude 10° 04:49:19 10° 344° (NNW) 2,191 ? -16.3°
Maximum altitude 04:52:49 21° 297° (WNW) 1,587 ? -16.7°
Drops below altitude 10° 04:56:19 10° 250° (WSW) 2,184 ? -17.0°
Sets 04:59:03 0° 234° (SW) 3,099 ? -17.3°
